Regional Weather Roundup
Issued by NWS

Home | Current Version | Previous Version | Graphics & Text | Print | Product List | Glossary On
Versions: 1 2 3 4 5 6 7 8 9 10 11 12 13 14 15 16 17 18 19 20 21 22 23 24 25 26 27 28
000
ASUS45 KTFX 302310
RWRMT
MONTANA REGIONAL WEATHER ROUNDUP
NATIONAL WEATHER SERVICE GREAT FALLS MT
500 PM MDT SAT APR 30 2016

NOTE: "FAIR" INDICATES FEW OR NO CLOUDS BELOW 12000 FEET WITH NO
SIGNIFICANT WEATHER AND/OR OBSTRUCTIONS TO VISIBILITY.

MTZ001>007-043-010000-
WEST OF THE DIVIDE

CITY           SKY/WX    TMP DP  RH WIND       PRES   REMARKS
KALISPELL      CLOUDY    62  32  32 NE12      30.20R
MISSOULA       LGT RAIN  53  42  66 SW6       30.23R
BUTTE          CLOUDY    45  30  55 NE8       30.20R
MULLAN PASS    CLOUDY    43  31  62 CALM      30.24S
ANACONDA         N/A     46  34  61 N15       30.20R
DEER LODGE       N/A     46  34  61 N14       30.23R
EUREKA           N/A     63  32  31 N5        30.22R
HAMILTON         N/A     52  37  58 NW9       30.19S
LIBBY            N/A     63  34  34 W3        30.21S
PLAINS           N/A     57  45  64 CALM      30.21
$$

MTZ008-052>055-010000-
SOUTHWEST MONTANA

CITY           SKY/WX    TMP DP  RH WIND       PRES   REMARKS
BOZEMAN        CLOUDY    50  33  52 E12       30.20R
DILLON         CLOUDY    48  31  51 NE26      30.14R
ENNIS          CLOUDY    46  32  57 E16G23    30.19R
$$

MTZ009-010-012-014-046-048-049-054-010000-
EAST SLOPES AND CENTRAL MONTANA

CITY           SKY/WX    TMP DP  RH WIND       PRES   REMARKS
CUT BANK       CLOUDY    52  35  52 E13       30.28R
GREAT FALLS    CLOUDY    52  36  54 E9        30.25R
HELENA         CLOUDY    51  36  56 N8        30.23R
CHOTEAU          N/A     50  37  62 NE15      30.27R
CONRAD           N/A     52  41  66 NE6       30.28R
$$

MTZ011-013-016-021-045-047-050-051-010000-
NORTH CENTRAL MONTANA

CITY           SKY/WX    TMP DP  RH WIND       PRES   REMARKS
HAVRE          CLOUDY    59  34  39 SE8       30.26S
LEWISTOWN      CLOUDY    51  33  50 E7        30.26S
N BAR RANCH    CLOUDY    48  32  53 NE6       30.28S
CHINOOK          N/A     61  28  29 E3        30.26S
$$

MTZ017>020-022>027-061-062-010000-
NORTHEAST MONTANA

CITY           SKY/WX    TMP DP  RH WIND       PRES   REMARKS
GLASGOW        SUNNY     63  28  26 E12       30.25S
JORDAN           N/A     61  30  31 E10       30.24R
SIDNEY         MOSUNNY   63  30  29 E13       30.25R
WOLF POINT     SUNNY     65  30  27 E9G20     30.25S
PLENTYWOOD       N/A     61  25  25 E12       30.27S
POPLAR           N/A     63  25  23 E9G17     30.26R
SCOBEY           N/A     63  27  25 E10       30.25
$$

MTZ028>42-056>058-010000-
SOUTHCENTRAL AND SOUTHEAST MONTANA

CITY           SKY/WX    TMP DP  RH WIND       PRES   REMARKS
BAKER          CLOUDY    57  30  35 E13G21    30.21R
BILLINGS       CLOUDY    52  34  50 NE10      30.23R
LIVINGSTON     CLOUDY    46  35  65 E15       30.22R
MILES CITY     PTSUNNY   59  31  34 NE12      30.21S
EKALAKA          N/A     54  29  38 NE12      30.16
FORSYTH          N/A     55  28  35 E7        30.22R
LAUREL           N/A     51  29  43 N8        30.19R
ROUNDUP          N/A     53  31  43 N7        30.14R
$$

REGIONAL REPORTS...DAKOTAS

CITY           SKY/WX    TMP DP  RH WIND       PRES   REMARKS
WILLISTON      MOSUNNY   62  28  27 E10       30.25R
MINOT          SUNNY     66  25  21 NE16      30.23S
DICKINSON      PTSUNNY   56  27  32 NE14G30   30.19R
BEACH            N/A     57  28  33 NE18      30.25S
CROSBY           N/A     63  23  22 E10       30.29S
WATFORD CITY     N/A     59  28  31 NE12G20   30.25R
BISMARCK       CLOUDY    60  29  30 NE20G28   30.19R
GRAND FORKS    MOSUNNY   60  26  27 NE23G30   30.21R
FARGO          CLOUDY    62  25  24 NE18G25   30.13R
BUFFALO SD       N/A     53  29  39 NE18G33   30.11R
RAPID CITY     CLOUDY    50  31  48 NE24G30   30.10R
$$

REGIONAL REPORTS...WYOMING/IDAHO/WASHINGTON

CITY           SKY/WX    TMP DP  RH WIND       PRES   REMARKS
GILLETTE       CLOUDY    47  33  58 NE14      30.16R
SHERIDAN       CLOUDY    49  34  56 CALM      30.21R
BUFFALO WY       N/A    N/A N/A N/A MISG      30.20R
CODY           CLOUDY    45  30  57 NW12G21   30.17S
YELLOWSTONE LA   N/A     38  24  57 VRB3      30.16R
IDAHO FALLS    LGT RAIN  57  30  35 N12G22    30.01S
SALMON         CLOUDY    54  32  43 CALM      30.11S
BOISE          SUNNY     69  35  28 NW22G35   29.99S
SPOKANE        MOSUNNY   62  38  40 N8        30.22S
$$

REGIONAL REPORTS...ALBERTA

CITY           SKY/WX    TMP DP  RH WIND       PRES   REMARKS
EDMONTON       MOSUNNY   63  36  36 SW9       30.21S
CALGARY        PTSUNNY   54  32  43 VRB2      30.28S
LETHBRIDGE     PTSUNNY   57  36  44 E5        30.27R
MEDICINE HAT   CLOUDY    59  36  41 VRB2      30.27R
WATERTON GATE    N/A     52  32  46 NE9         N/A
CARDSTON         N/A     54  34  47 SE6         N/A
$$

REGIONAL REPORTS...SASKATCHEWAN

CITY           SKY/WX    TMP DP  RH WIND       PRES   REMARKS
SWIFT CURRENT  MOSUNNY   61  27  27 S14G20    30.27R
REGINA         MOSUNNY   64  23  20 VRB13     30.29S
SASKATOON      MOSUNNY   68  23  18 S9        30.29S
CYPRESS HILLS    N/A     52  28  40 S7          N/A
VAL MARIE        N/A     59  25  27 SE6         N/A
ROCKGLEN         N/A     61  25  25 E6          N/A
ASSINIBOIA       N/A     63  30  29 S12G22      N/A
$$




USA.gov is the U.S. government's official web portal to all federal, state and local government web resources and services.